Time,TemperatureF,DewpointF,PressureIn,WindDirection,WindDirectionDegrees,WindSpeedMPH,WindSpeedGustMPH,Humidity,HourlyPrecipIn,Conditions,Clouds,dailyrainin,SoftwareType,DateUTC
2013-02-19 00:02:00,21.0,-2.0,30.15,North,-999,-999.0,-999.0,35,0.00,,,0.00,,2013-02-19 05:02:00,
2013-02-19 00:13:00,21.0,-2.0,30.15,North,-999,-999.0,-999.0,35,0.00,,,0.00,,2013-02-19 05:13:00,
2013-02-19 00:22:00,21.0,-2.0,30.16,North,-999,-999.0,-999.0,36,0.00,,,0.00,,2013-02-19 05:22:00,
2013-02-19 00:32:00,22.0,-1.0,30.16,North,-999,-999.0,-999.0,35,0.00,,,0.00,,2013-02-19 05:32:00,
2013-02-19 00:43:00,22.0,-1.0,30.16,North,-999,-999.0,-999.0,35,0.00,,,0.00,,2013-02-19 05:43:00,
2013-02-19 00:52:00,22.0,-1.0,30.16,North,-999,-999.0,-999.0,35,0.00,,,0.00,,2013-02-19 05:52:00,
2013-02-19 01:03:00,22.0,-1.0,30.16,North,-999,-999.0,-999.0,35,0.00,,,0.00,,2013-02-19 06:03:00,
2013-02-19 01:12:00,22.0,-1.0,30.16,North,-999,-999.0,-999.0,35,0.00,,,0.00,,2013-02-19 06:12:00,
2013-02-19 01:22:00,21.0,0.0,30.16,North,-999,-999.0,-999.0,39,0.00,,,0.00,,2013-02-19 06:22:00,
2013-02-19 01:32:00,21.0,-1.0,30.16,North,-999,-999.0,-999.0,38,0.00,,,0.00,,2013-02-19 06:32:00,
2013-02-19 01:42:00,21.0,-1.0,30.16,North,-999,-999.0,-999.0,38,0.00,,,0.00,,2013-02-19 06:42:00,
2013-02-19 01:52:00,21.0,-1.0,30.16,North,-999,-999.0,-999.0,38,0.00,,,0.00,,2013-02-19 06:52:00,
2013-02-19 02:02:00,21.0,-1.0,30.16,North,-999,-999.0,-999.0,38,0.00,,,0.00,,2013-02-19 07:02:00,
2013-02-19 02:11:00,21.0,-1.0,30.16,North,-999,-999.0,-999.0,38,0.00,,,0.00,,2013-02-19 07:11:00,
2013-02-19 02:22:00,21.0,4.0,30.17,North,-999,-999.0,-999.0,46,0.00,,,0.00,,2013-02-19 07:22:00,
2013-02-19 02:32:00,20.0,3.0,30.16,North,-999,-999.0,-999.0,46,0.00,,,0.00,,2013-02-19 07:32:00,
2013-02-19 02:42:00,20.0,3.0,30.16,North,-999,-999.0,-999.0,46,0.00,,,0.00,,2013-02-19 07:42:00,
2013-02-19 02:52:00,19.0,4.0,30.16,North,-999,-999.0,-999.0,51,0.00,,,0.00,,2013-02-19 07:52:00,
2013-02-19 03:02:00,19.0,4.0,30.16,North,-999,-999.0,-999.0,51,0.00,,,0.00,,2013-02-19 08:02:00,
2013-02-19 03:11:00,19.0,4.0,30.16,North,-999,-999.0,-999.0,51,0.00,,,0.00,,2013-02-19 08:11:00,
2013-02-19 03:22:00,18.0,5.0,30.15,North,-999,-999.0,-999.0,56,0.00,,,0.00,,2013-02-19 08:22:00,
2013-02-19 03:32:00,18.0,6.0,30.15,North,-999,-999.0,-999.0,58,0.00,,,0.00,,2013-02-19 08:32:00,
2013-02-19 03:42:00,18.0,6.0,30.15,North,-999,-999.0,-999.0,58,0.00,,,0.00,,2013-02-19 08:42:00,
2013-02-19 03:52:00,17.0,6.0,30.15,North,-999,-999.0,-999.0,60,0.00,,,0.00,,2013-02-19 08:52:00,
2013-02-19 04:02:00,17.0,7.0,30.13,North,-999,-999.0,-999.0,63,0.00,,,0.00,,2013-02-19 09:02:00,
2013-02-19 04:11:00,17.0,7.0,30.13,North,-999,-999.0,-999.0,63,0.00,,,0.00,,2013-02-19 09:11:00,
2013-02-19 04:22:00,17.0,7.0,30.13,North,-999,-999.0,-999.0,63,0.00,,,0.00,,2013-02-19 09:22:00,
2013-02-19 04:32:00,18.0,8.0,30.13,North,-999,-999.0,-999.0,64,0.00,,,0.00,,2013-02-19 09:32:00,
2013-02-19 04:42:00,18.0,8.0,30.13,North,-999,-999.0,-999.0,64,0.00,,,0.00,,2013-02-19 09:42:00,
2013-02-19 04:53:00,19.0,9.0,30.12,North,-999,-999.0,-999.0,64,0.00,,,0.00,,2013-02-19 09:53:00,
2013-02-19 05:02:00,19.0,9.0,30.13,North,-999,-999.0,-999.0,63,0.00,,,0.00,,2013-02-19 10:02:00,
2013-02-19 05:11:00,19.0,9.0,30.13,North,-999,-999.0,-999.0,63,0.00,,,0.00,,2013-02-19 10:11:00,
2013-02-19 05:22:00,20.0,8.0,30.13,North,-999,-999.0,-999.0,60,0.00,,,0.00,,2013-02-19 10:22:00,
2013-02-19 05:32:00,19.0,8.0,30.13,North,-999,-999.0,-999.0,61,0.00,,,0.00,,2013-02-19 10:32:00,
2013-02-19 05:42:00,19.0,8.0,30.13,North,-999,-999.0,-999.0,61,0.00,,,0.00,,2013-02-19 10:42:00,
2013-02-19 05:52:00,19.0,8.0,30.13,North,-999,-999.0,-999.0,62,0.00,,,0.00,,2013-02-19 10:52:00,
2013-02-19 06:01:00,20.0,7.0,30.13,North,-999,-999.0,-999.0,57,0.00,,,0.00,,2013-02-19 11:01:00,
2013-02-19 06:11:00,20.0,7.0,30.13,North,-999,-999.0,-999.0,57,0.00,,,0.00,,2013-02-19 11:11:00,
2013-02-19 06:22:00,21.0,8.0,30.12,North,-999,-999.0,-999.0,57,0.00,,,0.00,,2013-02-19 11:22:00,
2013-02-19 06:32:00,21.0,8.0,30.12,North,-999,-999.0,-999.0,57,0.00,,,0.00,,2013-02-19 11:32:00,
2013-02-19 06:42:00,21.0,8.0,30.12,North,-999,-999.0,-999.0,57,0.00,,,0.00,,2013-02-19 11:42:00,
2013-02-19 06:52:00,19.0,8.0,30.11,North,-999,-999.0,-999.0,62,0.00,,,0.00,,2013-02-19 11:52:00,
2013-02-19 07:02:00,19.0,9.0,30.11,North,-999,-999.0,-999.0,64,0.00,,,0.00,,2013-02-19 12:02:00,
2013-02-19 07:12:00,19.0,9.0,30.11,North,-999,-999.0,-999.0,64,0.00,,,0.00,,2013-02-19 12:12:00,
2013-02-19 07:22:00,18.0,8.0,30.11,North,-999,-999.0,-999.0,65,0.00,,,0.00,,2013-02-19 12:22:00,
2013-02-19 07:32:00,18.0,9.0,30.11,North,-999,-999.0,-999.0,66,0.00,,,0.00,,2013-02-19 12:32:00,
2013-02-19 07:42:00,18.0,9.0,30.11,North,-999,-999.0,-999.0,66,0.00,,,0.00,,2013-02-19 12:42:00,
2013-02-19 07:52:00,18.0,9.0,30.10,North,-999,-999.0,-999.0,66,0.00,,,0.00,,2013-02-19 12:52:00,
2013-02-19 08:02:00,19.0,10.0,30.10,North,-999,-999.0,-999.0,66,0.00,,,0.00,,2013-02-19 13:02:00,
2013-02-19 08:11:00,19.0,10.0,30.10,North,-999,-999.0,-999.0,66,0.00,,,0.00,,2013-02-19 13:11:00,
2013-02-19 08:22:00,21.0,10.0,30.10,North,-999,-999.0,-999.0,61,0.00,,,0.00,,2013-02-19 13:22:00,
2013-02-19 08:32:00,25.0,9.0,30.09,North,-999,-999.0,-999.0,50,0.00,,,0.00,,2013-02-19 13:32:00,
2013-02-19 08:42:00,25.0,9.0,30.09,North,-999,-999.0,-999.0,50,0.00,,,0.00,,2013-02-19 13:42:00,
2013-02-19 08:52:00,28.0,9.0,30.09,North,-999,-999.0,-999.0,45,0.00,,,0.00,,2013-02-19 13:52:00,
2013-02-19 09:01:00,29.0,10.0,30.09,North,-999,-999.0,-999.0,44,0.00,,,0.00,,2013-02-19 14:01:00,
2013-02-19 09:12:00,29.0,10.0,30.09,North,-999,-999.0,-999.0,44,0.00,,,0.00,,2013-02-19 14:12:00,
2013-02-19 09:22:00,31.0,12.0,30.09,North,-999,-999.0,-999.0,44,0.00,,,0.00,,2013-02-19 14:22:00,
2013-02-19 09:33:00,32.0,12.0,30.08,North,-999,-999.0,-999.0,43,0.00,,,0.00,,2013-02-19 14:33:00,
2013-02-19 09:42:00,32.0,12.0,30.08,North,-999,-999.0,-999.0,43,0.00,,,0.00,,2013-02-19 14:42:00,
2013-02-19 09:52:00,33.0,13.0,30.08,North,-999,-999.0,-999.0,43,0.00,,,0.00,,2013-02-19 14:52:00,
2013-02-19 10:02:00,35.0,16.0,30.06,SSW,192,1.0,5.0,45,0.00,,,0.00,,2013-02-19 15:02:00,
2013-02-19 10:11:00,35.0,16.0,30.06,SSW,192,1.0,5.0,45,0.00,,,0.00,,2013-02-19 15:11:00,
2013-02-19 10:22:00,35.0,17.0,30.06,South,170,2.0,6.0,47,0.00,,,0.00,,2013-02-19 15:22:00,
2013-02-19 10:32:00,37.0,19.0,30.05,SSW,207,1.0,8.0,48,0.00,,,0.00,,2013-02-19 15:32:00,
2013-02-19 10:42:00,37.0,19.0,30.05,SSW,207,1.0,8.0,48,0.00,,,0.00,,2013-02-19 15:42:00,
2013-02-19 10:52:00,38.0,22.0,30.04,SSW,207,0.0,8.0,51,0.00,,,0.00,,2013-02-19 15:52:00,
2013-02-19 11:02:00,39.0,22.0,30.04,South,174,3.0,7.0,50,0.00,,,0.00,,2013-02-19 16:02:00,
2013-02-19 11:11:00,39.0,22.0,30.04,South,174,3.0,7.0,50,0.00,,,0.00,,2013-02-19 16:11:00,
2013-02-19 11:22:00,41.0,25.0,30.04,SSW,197,5.0,8.0,52,0.00,,,0.00,,2013-02-19 16:22:00,
2013-02-19 11:32:00,42.0,25.0,30.03,South,180,4.0,11.0,51,0.00,,,0.00,,2013-02-19 16:32:00,
2013-02-19 11:42:00,42.0,25.0,30.03,South,180,4.0,11.0,51,0.00,,,0.00,,2013-02-19 16:42:00,
2013-02-19 11:52:00,43.0,25.0,30.02,South,173,3.0,11.0,49,0.00,,,0.00,,2013-02-19 16:52:00,
2013-02-19 12:01:00,43.0,25.0,30.00,SW,230,5.0,12.0,49,0.00,,,0.00,,2013-02-19 17:01:00,
2013-02-19 12:11:00,43.0,25.0,30.00,SW,230,5.0,12.0,49,0.00,,,0.00,,2013-02-19 17:11:00,
2013-02-19 12:21:00,44.0,26.0,29.99,SW,223,1.0,7.0,49,0.00,,,0.00,,2013-02-19 17:21:00,
2013-02-19 12:32:00,44.0,26.0,29.98,South,185,9.0,14.0,48,0.00,,,0.00,,2013-02-19 17:32:00,
2013-02-19 12:42:00,44.0,26.0,29.98,South,185,9.0,14.0,48,0.00,,,0.00,,2013-02-19 17:42:00,
2013-02-19 12:52:00,44.0,26.0,29.96,SSW,200,5.0,13.0,48,0.00,,,0.00,,2013-02-19 17:52:00,
2013-02-19 13:02:00,46.0,27.0,29.95,South,184,4.0,9.0,47,0.00,,,0.00,,2013-02-19 18:02:00,
2013-02-19 13:11:00,46.0,27.0,29.95,South,184,4.0,9.0,47,0.00,,,0.00,,2013-02-19 18:11:00,
2013-02-19 13:21:00,46.0,26.0,29.95,SSW,209,4.0,11.0,46,0.00,,,0.00,,2013-02-19 18:21:00,
2013-02-19 13:32:00,46.0,26.0,29.93,SSE,155,3.0,11.0,45,0.00,,,0.00,,2013-02-19 18:32:00,
2013-02-19 13:42:00,46.0,26.0,29.92,South,175,2.0,10.0,45,0.00,,,0.00,,2013-02-19 18:42:00,
2013-02-19 13:52:00,46.0,26.0,29.92,South,175,2.0,10.0,45,0.00,,,0.00,,2013-02-19 18:52:00,
2013-02-19 14:01:00,46.0,26.0,29.92,South,175,2.0,10.0,45,0.00,,,0.00,,2013-02-19 19:01:00,
2013-02-19 14:11:00,46.0,26.0,29.92,South,175,2.0,10.0,45,0.00,,,0.00,,2013-02-19 19:11:00,
2013-02-19 14:21:00,47.0,26.0,29.91,SE,144,2.0,9.0,43,0.00,,,0.00,,2013-02-19 19:21:00,
2013-02-19 14:32:00,46.0,27.0,29.90,SW,225,5.0,17.0,47,0.00,,,0.00,,2013-02-19 19:32:00,
2013-02-19 14:42:00,46.0,27.0,29.90,SW,225,5.0,17.0,47,0.00,,,0.00,,2013-02-19 19:42:00,
2013-02-19 14:52:00,46.0,28.0,29.89,SW,215,8.0,17.0,50,0.00,,,0.00,,2013-02-19 19:52:00,
2013-02-19 15:02:00,46.0,28.0,29.88,WSW,250,3.0,19.0,50,0.00,,,0.00,,2013-02-19 20:02:00,
2013-02-19 15:12:00,46.0,28.0,29.88,WSW,250,3.0,19.0,50,0.00,,,0.00,,2013-02-19 20:12:00,
2013-02-19 15:22:00,46.0,29.0,29.88,South,188,7.0,17.0,52,0.00,,,0.00,,2013-02-19 20:22:00,
2013-02-19 15:32:00,46.0,30.0,29.86,South,190,5.0,14.0,53,0.00,,,0.00,,2013-02-19 20:32:00,
2013-02-19 15:42:00,46.0,30.0,29.86,South,190,5.0,14.0,53,0.00,,,0.00,,2013-02-19 20:42:00,
2013-02-19 15:52:00,46.0,30.0,29.85,South,184,3.0,10.0,54,0.00,,,0.00,,2013-02-19 20:52:00,
2013-02-19 16:02:00,46.0,32.0,29.84,South,186,5.0,18.0,57,0.00,,,0.00,,2013-02-19 21:02:00,
2013-02-19 16:11:00,46.0,32.0,29.84,South,186,5.0,18.0,57,0.00,,,0.00,,2013-02-19 21:11:00,
2013-02-19 16:21:00,44.0,33.0,29.84,South,190,9.0,21.0,66,0.00,,,0.00,,2013-02-19 21:21:00,
2013-02-19 16:32:00,43.0,35.0,29.83,SSW,192,8.0,22.0,74,0.01,,,0.01,,2013-02-19 21:32:00,
2013-02-19 16:42:00,43.0,35.0,29.83,SSW,192,8.0,22.0,74,0.01,,,0.01,,2013-02-19 21:42:00,
2013-02-19 16:52:00,42.0,36.0,29.83,SW,214,3.0,11.0,79,0.01,,,0.01,,2013-02-19 21:52:00,
2013-02-19 17:02:00,41.0,36.0,29.82,South,178,2.0,7.0,82,0.02,,,0.02,,2013-02-19 22:02:00,
2013-02-19 17:11:00,41.0,36.0,29.82,South,178,2.0,7.0,82,0.02,,,0.02,,2013-02-19 22:11:00,
2013-02-19 17:21:00,41.0,37.0,29.80,South,184,2.0,7.0,84,0.02,,,0.02,,2013-02-19 22:21:00,
2013-02-19 17:32:00,41.0,37.0,29.79,South,181,1.0,9.0,85,0.01,,,0.02,,2013-02-19 22:32:00,
2013-02-19 17:42:00,41.0,37.0,29.79,South,181,1.0,9.0,85,0.01,,,0.02,,2013-02-19 22:42:00,
2013-02-19 17:52:00,41.0,37.0,29.78,South,174,1.0,7.0,86,0.01,,,0.02,,2013-02-19 22:52:00,
2013-02-19 18:01:00,41.0,38.0,29.77,SSE,164,1.0,7.0,88,0.01,,,0.03,,2013-02-19 23:01:00,
2013-02-19 18:11:00,41.0,38.0,29.77,SSE,164,1.0,7.0,88,0.01,,,0.03,,2013-02-19 23:11:00,
2013-02-19 18:21:00,40.0,37.0,29.76,SSE,167,1.0,5.0,89,0.03,,,0.05,,2013-02-19 23:21:00,
2013-02-19 18:32:00,40.0,37.0,29.76,South,173,0.0,5.0,90,0.04,,,0.06,,2013-02-19 23:32:00,
2013-02-19 18:42:00,40.0,37.0,29.76,South,173,0.0,5.0,90,0.04,,,0.06,,2013-02-19 23:42:00,
2013-02-19 18:52:00,40.0,38.0,29.74,South,172,0.0,3.0,91,0.04,,,0.06,,2013-02-19 23:52:00,
2013-02-19 19:01:00,40.0,38.0,29.73,SSE,166,0.0,3.0,91,0.03,,,0.06,,2013-02-20 00:01:00,
2013-02-19 19:11:00,40.0,38.0,29.73,SSE,166,0.0,3.0,91,0.03,,,0.06,,2013-02-20 00:11:00,
2013-02-19 19:21:00,40.0,38.0,29.72,SSE,165,0.0,4.0,92,0.03,,,0.08,,2013-02-20 00:21:00,
2013-02-19 19:32:00,40.0,38.0,29.71,SSE,167,0.0,6.0,92,0.03,,,0.09,,2013-02-20 00:32:00,
2013-02-19 19:42:00,40.0,38.0,29.71,SSE,167,0.0,6.0,92,0.03,,,0.09,,2013-02-20 00:42:00,
2013-02-19 19:52:00,41.0,39.0,29.69,SSE,148,1.0,5.0,93,0.04,,,0.10,,2013-02-20 00:52:00,
2013-02-19 20:02:00,41.0,39.0,29.69,SSE,148,1.0,5.0,93,0.04,,,0.10,,2013-02-20 01:02:00,
2013-02-19 20:11:00,41.0,39.0,29.69,SSE,148,1.0,5.0,93,0.04,,,0.10,,2013-02-20 01:11:00,
2013-02-19 20:21:00,41.0,39.0,29.68,South,180,0.0,5.0,93,0.04,,,0.11,,2013-02-20 01:21:00,
2013-02-19 20:32:00,41.0,39.0,29.66,South,187,1.0,6.0,93,0.04,,,0.12,,2013-02-20 01:32:00,
2013-02-19 20:42:00,41.0,39.0,29.66,South,187,1.0,6.0,93,0.04,,,0.12,,2013-02-20 01:42:00,
2013-02-19 20:52:00,40.0,38.0,29.65,South,188,0.0,3.0,93,0.04,,,0.13,,2013-02-20 01:52:00,
2013-02-19 21:02:00,39.0,37.0,29.65,South,188,0.0,0.0,93,0.04,,,0.14,,2013-02-20 02:02:00,
2013-02-19 21:11:00,39.0,37.0,29.65,South,188,0.0,0.0,93,0.04,,,0.14,,2013-02-20 02:11:00,
2013-02-19 21:21:00,39.0,37.0,29.64,SSW,206,0.0,4.0,93,0.06,,,0.17,,2013-02-20 02:21:00,
2013-02-19 21:32:00,39.0,37.0,29.62,SSW,206,0.0,0.0,93,0.06,,,0.18,,2013-02-20 02:32:00,
2013-02-19 21:42:00,39.0,37.0,29.62,SSW,206,0.0,0.0,93,0.06,,,0.18,,2013-02-20 02:42:00,
2013-02-19 21:52:00,38.0,36.0,29.63,SSW,206,0.0,0.0,94,0.06,,,0.19,,2013-02-20 02:52:00,
2013-02-19 22:02:00,38.0,36.0,29.63,SSW,206,0.0,0.0,94,0.05,,,0.19,,2013-02-20 03:02:00,
2013-02-19 22:12:00,38.0,36.0,29.63,SSW,206,0.0,0.0,94,0.05,,,0.19,,2013-02-20 03:12:00,
2013-02-19 22:22:00,38.0,36.0,29.62,SSW,206,0.0,0.0,94,0.03,,,0.20,,2013-02-20 03:22:00,
2013-02-19 22:32:00,38.0,36.0,29.62,SSW,206,0.0,0.0,94,0.03,,,0.20,,2013-02-20 03:32:00,
2013-02-19 22:42:00,38.0,36.0,29.62,SSW,206,0.0,0.0,94,0.03,,,0.20,,2013-02-20 03:42:00,
2013-02-19 22:52:00,38.0,37.0,29.62,SSW,206,0.0,0.0,95,0.02,,,0.21,,2013-02-20 03:52:00,
2013-02-19 23:01:00,37.0,35.0,29.59,SSW,206,0.0,0.0,94,0.02,,,0.21,,2013-02-20 04:01:00,
2013-02-19 23:11:00,37.0,35.0,29.59,SSW,206,0.0,0.0,94,0.02,,,0.21,,2013-02-20 04:11:00,
2013-02-19 23:21:00,37.0,35.0,29.59,SSW,206,0.0,0.0,94,0.01,,,0.21,,2013-02-20 04:21:00,
2013-02-19 23:32:00,37.0,35.0,29.59,SSW,206,0.0,0.0,94,0.01,,,0.21,,2013-02-20 04:32:00,
2013-02-19 23:42:00,37.0,35.0,29.59,SSW,206,0.0,0.0,94,0.01,,,0.21,,2013-02-20 04:42:00,
2013-02-19 23:52:00,38.0,37.0,29.59,NW,306,3.0,10.0,95,0.00,,,0.21,,2013-02-20 04:52:00,